Погода в Сортавале

Погода в Сортавале : погода сейчас, прогноз погоды и архив. Всё, что Вы хотите узнать о погоде в Сортавале!

Хотите узнать прогноз погоды в Сортавале? Тогда Вам сюда: Погода в Сортавале

Поиск расширенной информации на нашем сайте:

Другие новости

Новости СМИ2

Главная страница сайта

Новости сайта

03.07.2017

Напоминаем, что на нашем специализированном сайте Метеоцентр.Азия вы можете получить высокодетализированные автоматические прогнозы погоды по пунктам России, СНГ и мира в авиационном формате (включающие направление и скорость ветра, видимость, явления погоды, количество и форму облачности, нижнюю и верхнюю границу облачности).

Рекомендуем: Детальное описание автоваз официальный у нас.

Погода в Сортавале - сегодня

Время (UTC), дата Ветер
(°,м/с) 
Видим.   Явления Облачность Т
(°С)
Тd
(°С)
f(%) Тe
(°С)
Pmin
(гПа)
dP
(гПа)
Po
(мм)
O2
(г/м3)
Тmin Tmax R s Состояние
почвы
12 14.06.18 190 (Ю) 20000 м    9/4 600 м кучево-дожд., средняя, верхняя 
[Cb cap|Ac trans|Ci fib]
+16.8 +4.5 44 +17  1015.1  0.5  760  288           
15 14.06.18 170 (Ю) 20000 м    9/3 600 м кучево-дожд., средняя, верхняя 
[Cb cap|Ac trans|Ci fib]
+15.6 +4 46 +16  1015.1  760  289           
21 14.06.18 080 (В) 20000 м    9/0 средняя 
[Ac As]
+8.6 +4.6 76 +10  1015.2  0.4  760  296           
00 15.06.18 020 (С) 20000 м    8/0 средняя, верхняя 
[Ac trans|Cs]
+5.9 +2.4 78 +7  1015.1  -0.1  760  299           
03 15.06.18 110 (В) 20000 м    9/1 600 м кучево-дожд., средняя 
[Cb cap|Ac trans]
+10.4 +5.7 73 +11  1014.7  -0.3  759  294  +5.6         
09 15.06.18 110 (В) 20000 м    9/0 средняя, верхняя 
[Ac trans|Ci]
+15.8 +9.4 66 +16  1015.3  0.6  760  288           
12 15.06.18 100 (В) 20000 м    9/0 средняя, верхняя 
[Ac trans|Ci sp]
+18.1 +10.6 62 +21  1014.8  -0.5  759  285           
15 15.06.18 080 (В) 20000 м    8/0 средняя, верхняя 
[Ac trans|Ci fib]
+18.7 +11 61 +22  1013.9  -0.9  759  284           
21 15.06.18 020 (С) 20000 м    9/0 средняя, верхняя 
[Ac trans|Ci sp]
+11.9 +8.2 78 +13  1015.1  0.8  760  292           
00 16.06.18 тихо ()   20000 м    9/0 средняя, верхняя 
[Ac trans|Ci sp]
+9.5 +7.5 87 +10  1016.4  1.4  761  295           
03 16.06.18 120 (ЮВ) 20000 м    9/0 средняя, верхняя 
[Ac trans|Ci sp]
+12.1 +9 81 +13  1017.5  761  292  +9.5         
09 16.06.18 160 (Ю) 20000 м    9/4 600 м верхняя 
[Cu med, cong|Ci fib]
+20.5 +10.4 52 +22  1018.4  0.5  762  284           
12 16.06.18 190 (Ю) 20000 м    4/1 600 м верхняя 
[Cu med, cong|Ci fib]
+21 +10.4 51 +22  1018.3  -0.1  762  283           
15 16.06.18 120 (ЮВ) 20000 м    3/1 600 м верхняя 
[Cu med, cong|Ci fib]
+20.6 +9.7 50 +21  1018  -0.3  762  284           
21 16.06.18 130 (ЮВ) 20000 м    6/4 600 м средняя 
[Sc|Ac trans]
+13.1 +9.4 78 +14  1018.2  0.3  762  291           
03 17.06.18 050 (СВ) 40000 м    9/3 600 м средняя, верхняя 
[Sc|Ac trans|Ci fib]
+14 +9.2 73 +15  1018.5  0.1  762  291  +9.8         
09 17.06.18 130 (ЮВ) 20000 м    8/1 600 м кучево-дожд., средняя 
[Cb cap|Ac trans]
+22.7 +8.8 41 +23  1018.5  -0.1  762  282           
12 17.06.18 170 (Ю) 20000 м    9/1 600 м кучево-дожд., средняя 
[Cb cap|Ac trans]
+19.9 +9.6 51 +21  1018.3  -0.2  762  285           
15 17.06.18 190 (Ю) 20000 м    8/0 средняя 
[Ac trans]
+20.1 +8.3 47 +20  1017.9  -0.4  762  285           
21 17.06.18 070 (В) 20000 м    6/3 600 м средняя 
[Sc|Ac trans]
+13.4 +9.4 77 +15  1016.8  -0.5  761  291           
00 18.06.18 070 (В) 20000 м    9/3 600 м средняя, верхняя 
[Sc|Ac trans|Ci fib]
+12.2 +9.8 85 +14  1016.1  -0.7  760  292           
03 18.06.18 100 (В) 20000 м    9/5 600 м средняя, верхняя 
[Sc|Ac trans|Ci fib]
+14.5 +10.6 77 +18  1015.1  -1  760  289  +11.5         
15 18.06.18 150 (ЮВ) 20000 м    9/3 600 м кучево-дожд., средняя, верхняя 
[Cb cap|Ac trans|Ci fib]
+19.9 +12.1 61 +25  1010.3  -1.7  756  282      0.0     
21 18.06.18 180 (Ю) 20000 м    9/0 средняя 
[Ac As]
+17.7 +10.6 63 +21  1008.9  -0.4  755  284           
00 19.06.18 220 (ЮЗ) 20000 м    9/0 средняя, верхняя 
[Ac trans|Cc]
+16 +5.6 50 +17  1007.9  -0.9  754  286           
Время (UTC), дата Ветер
(°,м/с) 
Видим.   Явления Облачность Т
(°С)
Тd
(°С)
f(%) Тe
(°С)
Pmin
(гПа)
dP
(гПа)
Po
(мм)
O2
(г/м3)
Тmin Tmax R s Состояние
почвы

Для получения пояснительной информации подведите курсор к названию столбца.

ПОГОДА в Сортавале - архив

Всё, что Вы хотите узнать о погоде в Сортавале - удобно и подробно!

Выберите нужную дату (начиная с 1 января 2015* года) и нажмите кнопку "Найти".
Будут отображены архивные сводки погоды по пункту Сортавала, начиная с указанной даты.


Отображать данные в формате CSV (для использования в таблицах Excel)


Внимание! Наш архив погоды предназначен исключительно для личного некоммерческого использования в познавательных целях. Если Вам необходимы официальные справки о состоянии погоды (для производственных, юридических, коммерческих и т.п. целей), обращайтесь в органы Росгидромета.

*Примечание: данная дата относится к архиву по метеостанциям СССР (Россия, СНГ, Балтия).
Архив по метеостанциям Зарубежной Европы и Азии (кроме Китая) хранится 10 дней, по другим регионам земного шара (Китай, Африка, Америка, Австралия, Океания) - 1 день.

Сортавала - район местоположения метеостанции


Название, широта, долгота, высота метеостанции:
Сортавала 61.7°ш. 30.7°д. 19 м над ур. моря [Российская Федерация]

Дополнительная информация

В oтличие oт бoльшинства пoгoдных сайтoв мы публикуем пoдрoбную метеoинфoрмацию в детальнoм прoфессиoнальнoм фoрмате.

Характеристики температуры и влажнoсти вoздуха измеряются на высoте 2 м в тени вдали oт зданий и деревьев.
Скoрoсть ветра измеряется на высoте 10 м (на урoвне рoста челoвека скoрoсть ветра ниже в 1.5-2 раза). Если метеoстанция нахoдится в гoрoде или в лесу, тo скoрoсть ветра занижена на 2-4 м/с пo сравнению с oткрытым местoм. Скoрoсть ветра над акватoриями крупных рек и oзёр, а также на вершинах хoлмoв на 2-5 м/с выше, чем в oбычных услoвиях.
Атмoсфернoе давление в разных тoчках местнoсти мoжет значительнo oтличаться oт давления на метеoстанции, в зависимoсти oт услoвий рельефа (при пoдъёме на 10 м давление пoнижается примернo на 1 мм рт.ст.).